Location: Iesi
(43.5167°N, 13.2333°E)
Time: 19:19:25
(UTC+00:00)

Lacrosse 4 Rocket - Pass Details

Date: 08 August 2020
Orbit: 544 x 615 km, 68.0° (Epoch: 24 September)

Event Time Altitude Azimuth Distance (km) Brightness Sun altitude
Exits shadow 22:45:17 23° 34° (NE) 1,240 3.5 -30.4°
Drops below altitude 10° 22:46:57 10° 32° (NNE) 1,881 4.6 -30.4°
Sets 22:49:09 0° 31° (NNE) 2,771 5.6 -30.5°
